Preview of NWS' New Version of Forecast
This preview is not operational and should not be used for support decisions.

Regional Weather Roundup (RWR)

Issued by National Weather Service (NWS)

                            
000
ASUS43 KTOP 181159
RWRKS 

WEATHER ROUNDUP FOR KANSAS
NATIONAL WEATHER SERVICE GOODLAND KS
600 AM CST MON FEB 18 2019

NOTE:  "FAIR" INDICATES FEW OR NO CLOUDS BELOW 12,000 FEET WITH NO
SIGNIFICANT WEATHER AND/OR OBSTRUCTIONS TO VISIBILITY.

KSZ001>006-013>018-027>032-041>047-181300-
NORTHWEST KANSAS
  
CITY           SKY/WX    TMP DP  RH WIND       PRES   REMARKS
GOODLAND       LGT SNOW   4   0  83 N8        30.28R FOG              
6HR MIN TEMP:   4; 6HR MAX TEMP:   8; 6HR PCP:  0.01;                

HAYS           MOCLDY    10   4  76 N13       30.37S WCI  -5          
HILL CITY      CLOUDY     8   1  73 NW9       30.38R                  
6HR MIN TEMP:   7; 6HR MAX TEMP:  11;                                

RUSSELL        CLOUDY     9   4  80 NW8       30.38R                  
6HR MIN TEMP:   9; 6HR MAX TEMP:  13;                                

$$

KSZ061>065-074>080-084>089-181300-
SOUTHWEST KANSAS
  
CITY           SKY/WX    TMP DP  RH WIND       PRES   REMARKS
DODGE CITY     CLOUDY    12   3  67 N12       30.34R WCI  -2          
6HR MIN TEMP:  12; 6HR MAX TEMP:  15;                                

GARDEN CITY    LGT SNOW  11   7  84 NE8       30.33R FOG              
6HR MIN TEMP:  10; 6HR MAX TEMP:  15; 6HR PCP:  0.01;                

GREAT BEND     CLOUDY    11   5  77 NW10      30.39R WCI  -3          
LIBERAL        LGT SNOW  15   8  73 N15       30.30R WCI   0          
$$

KSZ066>073-081>083-090>101-181300-
SOUTHEAST KANSAS
  
CITY           SKY/WX    TMP DP  RH WIND       PRES   REMARKS
CHANUTE        CLEAR     18  12  77 N10       30.35R WCI   6          
6HR MIN TEMP:  18; 6HR MAX TEMP:  22;                                

COFFEYVILLE    CLEAR     19  14  81 N10       30.36R WCI   7          
6HR MIN TEMP:  19; 6HR MAX TEMP:  23;                                

HUTCHINSON     CLOUDY    13   7  77 N10       30.37R WCI   0          
6HR MIN TEMP:  13; 6HR MAX TEMP:  18;                                

MEDICINE LODGE   N/A     17   8  67 N13       30.39R WCI   4          
NEWTON         CLEAR     11   7  84 N13       30.36R WCI  -4          
PARSONS        CLEAR     18  14  84 N10       30.36R WCI   6          
6HR MIN TEMP:  17; 6HR MAX TEMP:  21;                                

WICHITA INTL   PTCLDY    15   9  76 N15       30.37R WCI   0          
6HR MIN TEMP:  15; 6HR MAX TEMP:  20;                                

WICHITA JABRA  CLEAR     13   7  77 NW12      30.36R WCI  -1          
6HR MIN TEMP:  13; 6HR MAX TEMP:  17;                                

WICHITA MCCONL PTCLDY    14   8  75 N12       30.36R WCI   1          
WINFIELD       CLEAR     15   9  76 NW8       30.40R                  
6HR MIN TEMP:  15; 6HR MAX TEMP:  19;                                

$$

KSZ007>012-019>026-033>040-048>060-102>105-181300-
NORTHEAST KANSAS
  
CITY           SKY/WX    TMP DP  RH WIND       PRES   REMARKS
CONCORDIA      CLOUDY     5   1  83 NW7       30.36S                  
6HR MIN TEMP:   5; 6HR MAX TEMP:  12;                                

EMPORIA        CLEAR     12   9  87 NW10      30.36R WCI  -1          
6HR MIN TEMP:  12; 6HR MAX TEMP:  17;                                

LAWRENCE       PTCLDY    12   7  80 NW9       30.37R                  
6HR MIN TEMP:  12; 6HR MAX TEMP:  16;                                

MANHATTAN      PTCLDY     9   4  80 CALM      30.39R                  
6HR MIN TEMP:   8; 6HR MAX TEMP:  16;                                

OLATHE IND     CLEAR     12   9  87 NW9       30.34R                  
6HR MIN TEMP:  11; 6HR MAX TEMP:  17;                                

OLATHE EXE     CLEAR     12  10  92 NW9       30.33R                  
6HR MIN TEMP:  12; 6HR MAX TEMP:  17;                                

SALINA         CLEAR      9   5  84 NW9       30.41R                  
6HR MIN TEMP:   9; 6HR MAX TEMP:  16;                                

TOPEKA BILLARD PTCLDY    13   7  77 W6        30.38R                  
6HR MIN TEMP:  12; 6HR MAX TEMP:  18;                                

TOPEKA FORBES  CLEAR     11   6  81 W9        30.36R                  
6HR MIN TEMP:  10; 6HR MAX TEMP:  17;                                

$$